period_start,C,m1,H,J0,J1,J2,J3,J4,J5,JA,JB,JC,JD,JJ,JK,JN,#
2017-02-01 00:03:10,0.26,7.76,0.00,21.22,24.91,28.49,14.40,50.09,999.68,2033.15,1582.39,1652.08,1867.19,599.96,589.65,32.39,0000 0000 0000 0000 000000
2017-02-01 00:08:12,0.30,7.77,0.00,21.18,24.90,28.52,14.45,50.24,999.56,2033.17,1580.32,1650.59,1865.50,600.49,590.06,32.44,0000 0000 0000 0000 000000
2017-02-01 00:13:13,0.28,7.79,0.00,21.13,24.90,28.49,14.43,50.13,999.59,2033.30,1578.23,1649.16,1863.84,600.08,589.90,32.49,0000 0000 0000 0000 000000
2017-02-01 00:18:14,0.27,7.80,0.00,21.16,24.89,28.49,14.41,50.19,999.60,2033.27,1576.17,1647.71,1862.19,600.08,589.83,32.54,0000 0000 0000 0000 000000
2017-02-01 00:23:15,0.29,7.82,0.00,21.17,24.87,28.48,14.43,50.23,999.70,2033.40,1574.14,1646.30,1860.60,599.78,589.48,32.60,0000 0000 0000 0000 000000
2017-02-01 00:28:17,0.32,7.83,0.00,21.12,24.87,28.48,14.36,50.20,999.82,2033.44,1571.91,1644.73,1858.77,599.84,589.65,32.65,0000 0000 0000 0000 000000
2017-02-01 00:33:18,0.30,7.85,0.00,21.12,24.87,28.49,14.41,50.27,999.84,2033.63,1569.68,1643.22,1857.01,599.94,589.88,32.70,0000 0000 0000 0000 000000
2017-02-01 00:38:19,0.25,7.86,0.00,21.17,24.86,28.46,14.37,50.33,999.76,2033.59,1567.68,1641.78,1855.48,599.75,589.50,32.75,0000 0000 0000 0000 000000
2017-02-01 00:43:20,0.27,7.87,0.00,21.14,24.85,28.43,14.44,50.26,999.82,2033.75,1565.87,1640.58,1854.16,599.97,589.97,32.80,0000 0000 0000 0000 000000
2017-02-01 00:48:22,0.26,7.89,0.00,21.11,24.85,28.46,14.45,50.23,999.66,2033.84,1563.95,1639.27,1852.61,599.95,589.84,32.85,0000 0000 0000 0000 000000
2017-02-01 00:53:23,0.26,7.90,0.00,21.13,24.83,28.44,14.39,50.16,999.56,2033.84,1562.03,1637.81,1851.03,599.69,589.46,32.90,0000 0000 0000 0000 000000
2017-02-01 00:58:25,0.25,7.91,0.00,21.16,24.82,28.42,14.45,50.06,999.56,2033.90,1560.29,1636.57,1849.58,600.22,589.93,32.95,0000 0000 0000 0000 000000
2017-02-01 01:03:26,0.21,7.93,0.00,21.10,24.82,28.42,14.36,50.14,999.53,2033.91,1558.59,1635.43,1848.21,599.94,589.67,33.00,0000 0000 0000 0000 000000
2017-02-01 01:08:28,0.25,7.94,0.00,21.09,24.81,28.41,14.42,50.22,999.54,2033.93,1556.79,1634.19,1846.77,600.06,589.85,33.05,0000 0000 0000 0000 000000
2017-02-01 01:13:29,0.22,7.95,0.00,21.12,24.80,28.40,14.39,50.13,999.53,2033.95,1555.13,1632.97,1845.38,599.61,589.38,33.10,0000 0000 0000 0000 000000
2017-02-01 01:18:30,0.25,7.96,0.00,21.10,24.80,28.40,14.44,50.25,999.53,2033.96,1553.34,1631.72,1843.90,600.15,589.95,33.15,0000 0000 0000 0000 000000
2017-02-01 01:23:32,0.26,7.98,0.00,21.05,24.78,28.37,14.48,50.27,999.54,2033.97,1551.41,1630.38,1842.40,599.95,589.83,33.20,0000 0000 0000 0000 000000
2017-02-01 01:28:33,0.28,7.99,0.00,21.08,24.77,28.39,14.41,50.17,999.55,2033.98,1549.31,1628.88,1840.74,599.96,589.88,33.25,0000 0000 0000 0000 000000
2017-02-01 01:33:34,0.28,8.01,0.00,21.07,24.77,28.38,14.40,50.17,999.54,2033.98,1547.22,1627.48,1839.07,600.06,589.93,33.30,0000 0000 0000 0000 000000
2017-02-01 01:38:36,0.29,8.02,0.00,21.03,24.75,28.37,14.47,50.13,999.53,2033.98,1545.13,1625.95,1837.39,600.31,590.27,33.35,0000 0000 0000 0000 000000
2017-02-01 01:43:37,0.29,8.03,0.00,21.05,24.75,28.35,14.43,50.27,999.53,2033.99,1543.02,1624.58,1835.72,600.06,589.99,33.40,0000 0000 0000 0000 000000
2017-02-01 01:48:39,0.25,8.05,0.00,21.07,24.74,28.35,14.48,50.20,999.53,2033.99,1541.08,1623.21,1834.16,600.04,589.97,33.45,0000 0000 0000 0000 000000
2017-02-01 01:53:40,0.29,8.06,0.00,21.02,24.72,28.36,14.42,50.25,999.54,2033.98,1539.04,1621.73,1832.58,599.90,589.76,33.51,0000 0000 0000 0000 000000
2017-02-01 01:58:42,0.26,8.08,0.00,20.99,24.72,28.36,14.42,50.25,999.54,2033.99,1537.07,1620.42,1831.00,599.99,590.02,33.56,0000 0000 0000 0000 000000
2017-02-01 02:03:43,0.25,8.09,0.00,21.02,24.71,28.33,14.40,50.27,999.53,2033.99,1535.15,1619.00,1829.43,599.93,589.88,33.61,0000 0000 0000 0000 000000
2017-02-01 02:08:44,0.28,8.10,0.00,21.02,24.70,28.30,14.41,50.27,999.53,2033.99,1533.25,1617.63,1827.79,599.64,589.62,33.66,0000 0000 0000 0000 000000
2017-02-01 02:13:46,0.26,8.12,0.00,20.98,24.70,28.34,14.43,50.21,999.54,2033.99,1531.28,1616.28,1826.26,599.77,589.76,33.71,0000 0000 0000 0000 000000
2017-02-01 02:18:47,0.29,8.13,0.00,20.98,24.69,28.31,14.44,50.22,999.54,2033.99,1529.20,1614.81,1824.63,599.78,589.81,33.76,0000 0000 0000 0000 000000
2017-02-01 02:23:48,0.27,8.15,0.00,21.01,24.67,28.30,14.51,50.26,999.55,2033.99,1527.27,1613.52,1823.04,600.41,590.33,33.81,0000 0000 0000 0000 000000
2017-02-01 02:28:50,0.28,8.16,0.00,20.97,24.67,28.29,14.41,50.36,999.54,2033.99,1525.10,1611.99,1821.40,600.02,590.06,33.86,0000 0000 0000 0000 000000
2017-02-01 02:33:51,0.26,8.18,0.00,20.95,24.67,28.30,14.43,50.32,999.53,2033.99,1523.20,1610.66,1819.88,599.99,590.03,33.91,0000 0000 0000 0000 000000
2017-02-01 02:38:53,0.26,8.19,0.00,20.98,24.65,28.28,14.44,50.39,999.53,2033.99,1521.34,1609.41,1818.46,600.21,590.17,33.96,0000 0000 0000 0000 000000
2017-02-01 02:43:54,0.24,8.20,0.00,20.99,24.65,28.26,14.45,50.27,999.53,2033.99,1519.57,1608.13,1816.93,600.07,590.13,34.01,0000 0000 0000 0000 000000
2017-02-01 02:48:55,0.27,8.22,0.00,20.95,24.65,28.25,14.39,50.27,999.53,2034.00,1517.67,1606.84,1815.52,599.86,589.92,34.06,0000 0000 0000 0000 000000
2017-02-01 02:53:57,0.28,8.23,0.00,20.95,24.63,28.23,14.42,50.26,999.53,2034.01,1515.73,1605.54,1813.96,600.03,590.13,34.11,0000 0000 0000 0000 000000
2017-02-01 02:58:58,0.25,8.24,0.00,20.97,24.62,28.24,14.51,50.27,999.53,2034.01,1513.81,1604.26,1812.53,600.00,590.05,34.16,0000 0000 0000 0000 000000
2017-02-01 03:04:00,0.28,8.26,0.00,20.93,24.62,28.25,14.48,50.22,999.53,2034.01,1511.89,1602.82,1810.95,600.13,590.17,34.21,0000 0000 0000 0000 000000
2017-02-01 03:09:01,0.29,8.27,0.00,20.91,24.62,28.24,14.40,50.27,999.53,2034.02,1509.81,1601.46,1809.33,600.11,590.21,34.26,0000 0000 0000 0000 000000
2017-02-01 03:14:03,0.30,8.29,0.00,20.95,24.61,28.22,14.37,50.28,999.53,2034.02,1507.68,1599.97,1807.66,599.91,589.97,34.31,0000 0000 0000 0000 000000
2017-02-01 03:19:04,0.28,8.30,0.00,20.95,24.60,28.24,14.44,50.30,999.53,2034.02,1505.58,1598.66,1806.00,599.98,590.10,34.37,0000 0000 0000 0000 000000
2017-02-01 03:24:05,0.26,8.31,0.00,20.91,24.60,28.24,14.43,50.35,999.53,2034.03,1503.67,1597.42,1804.52,600.08,590.25,34.42,0000 0000 0000 0000 000000
2017-02-01 03:29:06,0.29,8.33,0.00,20.93,24.60,28.23,14.43,50.33,999.53,2034.04,1501.63,1596.00,1802.94,600.01,590.21,34.47,0000 0000 0000 0000 000000
2017-02-01 03:34:08,0.30,8.34,0.00,20.95,24.59,28.21,14.47,50.31,999.53,2034.07,1499.55,1594.55,1801.29,600.02,590.13,34.52,0000 0000 0000 0000 000000
2017-02-01 03:39:09,0.29,8.36,0.00,20.91,24.58,28.20,14.41,50.47,999.53,2034.10,1497.47,1593.10,1799.65,599.58,589.61,34.57,0000 0000 0000 0000 000000
2017-02-01 03:44:10,0.29,8.37,0.00,20.90,24.57,28.20,14.47,50.39,999.53,2034.12,1495.49,1591.70,1797.95,599.96,590.18,34.62,0000 0000 0000 0000 000000
2017-02-01 03:49:12,0.27,8.39,0.00,20.95,24.57,28.19,14.40,50.35,999.53,2034.10,1493.46,1590.30,1796.44,599.96,590.00,34.67,0000 0000 0000 0000 000000
2017-02-01 03:54:13,0.30,8.40,0.00,20.91,24.56,28.20,14.48,50.55,999.53,2034.07,1491.42,1588.85,1794.73,599.99,590.09,34.72,0000 0000 0000 0000 000000
2017-02-01 03:59:15,0.30,8.42,0.00,20.88,24.55,28.16,14.39,50.46,999.53,2034.12,1489.35,1587.47,1793.10,599.89,590.16,34.77,0000 0000 0000 0000 000000
2017-02-01 04:04:16,0.27,8.43,0.00,20.89,24.55,28.18,14.45,50.38,999.53,2034.09,1487.32,1586.01,1791.55,600.12,590.30,34.82,0000 0000 0000 0000 000000
2017-02-01 04:09:17,0.33,8.45,0.00,20.91,24.55,28.17,14.44,50.32,999.54,2034.27,1485.30,1584.63,1789.97,599.45,589.59,34.87,0000 0000 0000 0000 000000
2017-02-01 04:14:18,0.28,8.47,0.00,20.87,24.53,28.14,14.47,50.38,999.58,2034.29,1483.20,1583.17,1788.32,600.25,590.53,34.92,0000 0000 0000 0000 000000
2017-02-01 04:19:19,0.33,8.48,0.00,20.87,24.52,28.17,14.45,50.28,999.76,2034.20,1481.07,1581.68,1786.62,599.92,590.32,34.97,0000 0000 0000 0000 000000
2017-02-01 04:24:20,0.31,8.50,0.00,20.88,24.52,28.16,14.46,50.36,999.68,2034.39,1479.05,1580.27,1784.99,600.19,590.48,35.02,0000 0000 0000 0000 000000
2017-02-01 04:29:22,0.30,8.51,0.00,20.86,24.52,28.15,14.43,50.32,999.67,2034.41,1477.05,1578.82,1783.42,600.30,590.78,35.07,0000 0000 0000 0000 000000
2017-02-01 04:34:23,0.28,8.53,0.00,20.82,24.50,28.15,14.47,50.35,999.56,2034.53,1475.10,1577.49,1781.83,599.78,590.22,35.12,0000 0000 0000 0000 000000
2017-02-01 04:39:24,0.29,8.54,0.00,20.83,24.50,28.15,14.34,50.38,999.62,2034.60,1473.04,1576.09,1780.20,599.68,589.97,35.17,0000 0000 0000 0000 000000
2017-02-01 04:44:25,0.37,8.56,0.00,20.88,24.49,28.11,14.42,50.45,999.82,2034.83,1470.96,1574.58,1778.49,599.65,590.11,35.22,0000 0000 0000 0000 000000
2017-02-01 04:49:26,0.29,8.58,0.00,20.82,24.47,28.10,14.52,50.46,999.55,2034.89,1468.86,1573.11,1776.76,600.38,590.69,35.27,0000 0000 0000 0000 000000
2017-02-01 04:54:28,0.33,8.59,0.00,20.78,24.47,28.12,14.45,50.43,999.53,2034.88,1466.68,1571.58,1775.13,600.31,590.91,35.32,0000 0000 0000 0000 000000
2017-02-01 04:59:29,0.31,8.61,0.00,20.82,24.46,28.10,14.49,50.39,999.53,2034.87,1464.43,1570.03,1773.30,599.93,590.32,35.38,0000 0000 0000 0000 000000
2017-02-01 05:04:30,0.30,8.62,0.00,20.81,24.45,28.07,14.43,50.48,999.53,2034.93,1462.48,1568.71,1771.73,599.83,590.31,35.43,0000 0000 0000 0000 000000
2017-02-01 05:09:31,0.27,8.64,0.00,20.76,24.45,28.07,14.47,50.45,999.53,2034.95,1460.56,1567.41,1770.30,600.07,590.58,35.48,0000 0000 0000 0000 000000
2017-02-01 05:14:32,0.29,8.65,0.00,20.79,24.44,28.09,14.39,50.26,999.53,2034.96,1458.55,1565.95,1768.71,600.01,590.46,35.53,0000 0000 0000 0000 000000
2017-02-01 05:19:33,0.29,8.67,0.00,20.80,24.42,28.06,14.45,50.33,999.53,2034.97,1456.61,1564.63,1767.19,600.50,590.91,35.58,0000 0000 0000 0000 000000
2017-02-01 05:24:35,0.30,8.68,0.00,20.75,24.42,28.05,14.42,50.46,999.53,2034.98,1454.56,1563.23,1765.60,599.76,590.26,35.63,0000 0000 0000 0000 000000
2017-02-01 05:29:36,0.28,8.70,0.00,20.72,24.42,28.04,14.44,50.39,999.53,2034.99,1452.61,1561.85,1764.06,600.11,590.91,35.68,0000 0000 0000 0000 000000
2017-02-01 05:34:37,0.30,8.71,0.00,20.76,24.41,28.02,14.49,50.48,999.53,2034.98,1450.62,1560.50,1762.49,599.82,590.32,35.73,0000 0000 0000 0000 000000
2017-02-01 05:39:38,0.35,8.73,0.00,20.72,24.40,28.05,14.43,50.52,999.53,2034.98,1448.29,1558.83,1760.68,599.49,590.02,35.78,0000 0000 0000 0000 000000
2017-02-01 05:44:40,3.93,8.86,0.00,20.69,24.40,28.02,14.48,50.38,999.53,2034.99,1422.15,1546.16,1746.59,600.23,590.92,35.83,0000 0000 0000 0000 000000
2017-02-01 05:49:41,1.14,8.97,0.00,20.71,24.39,28.01,14.45,50.42,999.53,2034.99,1410.62,1539.97,1739.73,600.06,590.73,35.88,0000 0000 0000 0000 000000
2017-02-01 05:54:42,0.50,9.01,0.00,20.73,24.38,28.01,14.43,50.40,999.53,2034.99,1405.57,1536.88,1736.38,599.81,590.36,35.93,0000 0000 0000 0000 000000
2017-02-01 05:59:43,0.48,9.03,0.57,20.68,24.37,28.01,14.48,50.41,999.53,2034.99,1402.53,1535.02,1734.05,600.03,590.56,35.98,0000 0000 0000 0000 000000
2017-02-01 06:04:45,0.45,9.06,1.00,20.68,24.37,28.01,14.40,50.43,999.53,2034.99,1399.49,1533.00,1731.65,600.05,590.69,36.03,0000 0000 0000 0000 000000
2017-02-01 06:09:46,0.44,9.08,1.00,20.70,24.36,27.98,14.49,50.49,999.53,2034.99,1396.60,1531.04,1729.44,600.22,590.86,36.08,0000 0000 0000 0000 000000
2017-02-01 06:14:47,0.53,9.11,1.00,20.65,24.35,27.99,14.48,50.51,999.53,2034.99,1393.14,1528.78,1727.02,600.14,590.95,36.13,0000 0000 0000 0000 000000
2017-02-01 06:19:49,0.52,9.13,1.00,20.63,24.35,28.00,14.43,50.59,999.53,2034.99,1389.78,1526.46,1724.52,599.89,590.66,36.18,0000 0000 0000 0000 000000
2017-02-01 06:24:50,0.49,9.16,1.00,20.65,24.34,27.98,14.55,50.51,999.53,2034.99,1386.48,1524.23,1722.03,600.41,591.19,36.23,0000 0000 0000 0000 000000
2017-02-01 06:29:51,0.50,9.18,0.40,20.66,24.32,27.96,14.41,50.56,999.53,2034.99,1383.33,1522.09,1719.58,599.22,590.03,36.28,0000 0000 0000 0000 000000
2017-02-01 06:34:52,0.46,9.21,0.00,20.61,24.32,27.95,14.37,50.51,999.53,2035.00,1380.24,1519.98,1717.21,599.95,590.91,36.34,0000 0000 0000 0000 000000
2017-02-01 06:39:54,0.34,9.22,0.00,20.62,24.31,27.93,14.41,50.46,999.53,2035.00,1377.96,1518.41,1715.42,599.84,590.58,36.39,0000 0000 0000 0000 000000
2017-02-01 06:44:55,0.30,9.24,0.00,20.65,24.30,27.90,14.47,50.49,999.53,2035.00,1376.07,1516.96,1713.81,599.88,590.59,36.44,0000 0000 0000 0000 000000
2017-02-01 06:49:57,0.36,9.26,0.00,20.60,24.30,27.91,14.48,50.55,999.53,2035.00,1373.90,1515.49,1712.09,600.22,590.90,36.49,0000 0000 0000 0000 000000
2017-02-01 06:54:58,0.34,9.28,0.00,20.56,24.29,27.92,14.44,50.55,999.70,2035.00,1371.65,1513.87,1710.28,600.06,591.09,36.54,0000 0000 0000 0000 000000
2017-02-01 07:00:00,0.32,9.29,0.00,20.61,24.27,27.90,14.49,50.33,999.60,2035.00,1369.71,1512.54,1708.70,600.24,591.02,36.59,0000 0000 0000 0000 000000
2017-02-01 07:05:01,0.32,9.31,0.00,20.59,24.27,27.90,14.41,50.40,999.62,2035.01,1367.71,1511.12,1707.09,600.19,591.00,36.64,0000 0000 0000 0000 000000
2017-02-01 07:10:02,0.35,9.33,0.00,20.54,24.26,27.90,14.48,50.60,999.53,2035.02,1365.59,1509.57,1705.39,600.05,591.02,36.69,0000 0000 0000 0000 000000
2017-02-01 07:15:03,0.33,9.35,0.00,20.59,24.25,27.88,14.45,50.67,999.53,2035.05,1363.52,1508.12,1703.71,600.34,591.14,36.74,0000 0000 0000 0000 000000
2017-02-01 07:20:04,0.37,9.36,0.00,20.62,24.25,27.84,14.50,50.91,999.53,2035.10,1361.30,1506.55,1701.97,600.21,590.93,36.79,0000 0000 0000 0000 000000
2017-02-01 07:25:05,0.29,9.38,0.00,20.55,24.23,27.84,14.49,50.78,999.53,2035.14,1359.41,1505.24,1700.47,600.04,590.89,36.84,0000 0000 0000 0000 000000
2017-02-01 07:30:07,0.35,9.40,0.00,20.52,24.22,27.84,14.46,50.70,999.53,2035.41,1357.51,1503.94,1698.97,599.78,590.79,36.89,0000 0000 0000 0000 000000
2017-02-01 07:35:08,0.30,9.41,0.00,20.57,24.22,27.82,14.47,50.73,999.53,2035.32,1355.61,1502.48,1697.44,599.87,590.69,36.94,0000 0000 0000 0000 000000
2017-02-01 07:40:10,0.37,9.43,0.00,20.58,24.20,27.82,14.46,50.67,999.53,2035.59,1353.76,1501.08,1695.84,600.01,590.78,36.99,0000 0000 0000 0000 000000
2017-02-01 07:45:11,0.31,9.45,0.00,20.51,24.20,27.83,14.42,50.73,999.53,2035.73,1351.85,1499.75,1694.31,599.60,590.63,37.04,0000 0000 0000 0000 000000
2017-02-01 07:50:12,0.25,9.46,0.00,20.52,24.20,27.81,14.43,50.73,999.53,2035.93,1350.29,1498.70,1693.06,599.89,590.90,37.09,0000 0000 0000 0000 000000
2017-02-01 07:55:13,0.32,9.48,0.00,20.56,24.18,27.82,14.46,50.67,999.53,2035.93,1348.42,1497.37,1691.56,600.22,591.02,37.15,0000 0000 0000 0000 000000
2017-02-01 08:00:15,0.34,9.50,0.00,20.55,24.17,27.82,14.46,50.74,999.53,2035.94,1346.38,1495.80,1689.87,600.23,591.07,37.20,0000 0000 0000 0000 000000
2017-02-01 08:05:16,0.37,9.51,0.00,20.50,24.17,27.81,14.45,50.75,999.53,2035.97,1344.26,1494.29,1688.21,600.13,591.00,37.25,0000 0000 0000 0000 000000
2017-02-01 08:10:17,0.45,9.53,0.00,20.50,24.17,27.79,14.48,50.77,999.53,2035.97,1341.82,1492.34,1686.04,599.79,590.90,37.30,0000 0000 0000 0000 000000
2017-02-01 08:15:19,0.44,9.56,0.00,20.54,24.16,27.80,14.47,50.83,999.53,2035.98,1339.05,1490.44,1683.85,599.66,590.60,37.35,0000 0000 0000 0000 000000
2017-02-01 08:20:20,0.46,9.58,0.00,20.51,24.15,27.77,14.45,50.77,999.53,2035.97,1336.17,1488.59,1681.82,599.81,590.80,37.40,0000 0000 0000 0000 000000
2017-02-01 08:25:21,0.42,9.60,0.00,20.48,24.15,27.77,14.48,50.79,999.53,2035.98,1333.41,1486.74,1679.74,600.26,591.17,37.45,0000 0000 0000 0000 000000
2017-02-01 08:30:22,0.39,9.62,0.00,20.50,24.15,27.77,14.48,50.76,999.53,2035.99,1330.98,1485.17,1677.80,599.94,590.99,37.50,0000 0000 0000 0000 000000
2017-02-01 08:35:24,0.61,9.65,0.00,20.52,24.15,27.78,14.39,50.87,999.53,2035.98,1327.53,1482.84,1675.25,599.87,590.87,37.55,0000 0000 0000 0000 000000
2017-02-01 08:40:25,0.42,9.67,0.00,20.46,24.14,27.77,14.40,50.83,999.53,2035.99,1324.82,1480.92,1673.12,600.07,591.14,37.60,0000 0000 0000 0000 000000
2017-02-01 08:45:26,0.48,9.70,0.00,20.46,24.12,27.78,14.51,50.82,999.53,2035.99,1321.86,1478.91,1670.86,599.87,590.85,37.65,0000 0000 0000 0000 000000
2017-02-01 08:50:27,0.40,9.72,0.00,20.52,24.12,27.77,14.48,50.87,999.53,2035.98,1319.31,1477.16,1668.81,599.84,590.88,37.70,0000 0000 0000 0000 000000
2017-02-01 08:55:29,0.42,9.74,0.00,20.50,24.12,27.76,14.42,50.86,999.53,2035.99,1316.84,1475.47,1666.94,599.45,590.44,37.75,0000 0000 0000 0000 000000
2017-02-01 09:00:30,0.48,9.76,0.00,20.47,24.12,27.74,14.41,50.84,999.53,2035.99,1314.08,1473.50,1664.73,599.46,590.58,37.80,0000 0000 0000 0000 000000
2017-02-01 09:05:31,0.46,9.79,0.00,20.49,24.11,27.77,14.49,50.83,999.53,2035.99,1311.25,1471.62,1662.53,599.83,590.74,37.85,0000 0000 0000 0000 000000
2017-02-01 09:10:32,0.43,9.81,0.00,20.55,24.10,27.76,14.48,50.98,999.53,2035.99,1308.59,1469.83,1660.45,600.05,590.95,37.90,0000 0000 0000 0000 000000
2017-02-01 09:15:33,0.43,9.83,0.00,20.52,24.10,27.77,14.46,50.87,999.53,2035.99,1306.04,1468.02,1658.45,599.98,590.96,37.95,0000 0000 0000 0000 000000
2017-02-01 09:20:35,0.43,9.85,0.00,20.47,24.10,27.76,14.45,50.90,999.53,2035.99,1303.48,1466.17,1656.38,599.69,590.78,38.00,0000 0000 0000 0000 000000
2017-02-01 09:25:36,0.53,9.88,0.00,20.49,24.10,27.74,14.42,50.91,999.53,2035.99,1300.64,1464.08,1654.01,599.97,590.88,38.05,0000 0000 0000 0000 000000
2017-02-01 09:30:38,0.61,9.91,0.00,20.54,24.10,27.73,14.48,50.92,999.53,2035.99,1297.30,1461.43,1651.10,600.03,590.82,38.10,0000 0000 0000 0000 000000
2017-02-01 09:35:39,0.48,9.94,0.00,20.50,24.10,27.74,14.48,50.89,999.53,2035.99,1294.52,1459.25,1648.67,600.10,591.10,38.16,0000 0000 0000 0000 000000
2017-02-01 09:40:40,0.53,9.96,0.00,20.46,24.09,27.75,14.46,50.89,999.53,2035.99,1291.69,1457.00,1646.23,599.71,590.88,38.21,0000 0000 0000 0000 000000
2017-02-01 09:45:41,0.55,9.99,0.00,20.52,24.09,27.75,14.45,50.97,999.52,2035.99,1288.72,1454.68,1643.60,599.83,590.95,38.26,0000 0000 0000 0000 000000
2017-02-01 09:50:43,0.51,10.02,0.00,20.54,24.09,27.75,14.46,50.89,999.53,2035.99,1285.88,1452.43,1641.10,600.04,590.98,38.31,0000 0000 0000 0000 000000
2017-02-01 09:55:44,0.49,10.04,0.00,20.48,24.08,27.74,14.55,50.94,999.53,2035.99,1283.19,1450.24,1638.71,600.39,591.34,38.36,0000 0000 0000 0000 000000
2017-02-01 10:00:45,0.37,10.06,0.77,20.47,24.07,27.74,14.44,50.98,999.51,2035.99,1280.96,1448.55,1636.78,599.87,590.92,38.41,0000 0000 0000 0000 000000
2017-02-01 10:05:47,0.31,10.08,1.00,20.53,24.07,27.75,14.53,50.97,999.50,2035.99,1279.23,1447.21,1635.26,600.46,591.34,38.46,0000 0000 0000 0000 000000
2017-02-01 10:10:48,0.31,10.10,1.00,20.49,24.07,27.74,14.41,50.97,999.47,2035.99,1277.54,1445.89,1633.77,599.94,590.95,38.51,0000 0000 0000 0000 000000
2017-02-01 10:15:49,0.34,10.11,1.00,20.45,24.07,27.74,14.41,51.05,999.44,2036.00,1275.70,1444.60,1632.37,600.00,591.04,38.56,0000 0000 0000 0000 000000
2017-02-01 10:20:50,0.40,10.13,1.00,20.51,24.07,27.74,14.55,51.22,999.36,2036.00,1273.57,1442.97,1630.57,600.04,590.88,38.61,0000 0000 0000 0000 000000
2017-02-01 10:25:52,0.37,10.15,1.00,20.54,24.07,27.74,14.41,51.12,999.28,2036.00,1271.46,1441.32,1628.69,600.02,590.70,38.66,0000 0000 0000 0000 000000
2017-02-01 10:30:53,0.40,10.17,0.20,20.50,24.07,27.73,14.49,51.19,999.22,2036.00,1269.35,1439.69,1626.89,600.13,591.03,38.71,0000 0000 0000 0000 000000
2017-02-01 10:35:54,0.30,10.19,0.00,20.49,24.07,27.76,14.43,51.18,999.28,2036.01,1267.60,1438.38,1625.46,600.09,590.86,38.76,0000 0000 0000 0000 000000
2017-02-01 10:40:55,0.33,10.21,0.00,20.55,24.07,27.74,14.47,51.28,999.14,2036.01,1265.77,1436.97,1623.92,600.21,590.89,38.81,0000 0000 0000 0000 000000
2017-02-01 10:45:57,0.46,10.23,0.00,20.56,24.08,27.74,14.46,51.22,999.14,2036.00,1263.40,1435.14,1621.83,599.75,590.52,38.86,0000 0000 0000 0000 000000
2017-02-01 10:50:58,0.45,10.25,0.00,20.50,24.08,27.76,14.46,51.36,999.24,2036.01,1260.97,1433.23,1619.70,600.06,590.87,38.91,0000 0000 0000 0000 000000
2017-02-01 10:56:00,0.40,10.27,0.00,20.56,24.08,27.76,14.49,51.37,999.37,2036.00,1258.79,1431.54,1617.77,599.92,590.66,38.96,0000 0000 0000 0000 000000
2017-02-01 11:01:01,0.38,10.29,0.00,20.62,24.09,27.78,14.53,51.33,999.33,2036.00,1256.70,1429.89,1615.98,600.16,590.81,39.01,0000 0000 0000 0000 000000
2017-02-01 11:06:03,0.33,10.31,0.00,20.59,24.10,27.82,14.41,51.30,999.33,2036.01,1254.89,1428.58,1614.49,599.96,590.66,39.07,0000 0000 0000 0000 000000
2017-02-01 11:11:04,0.28,10.33,0.00,20.56,24.10,27.80,14.48,51.24,999.46,2036.01,1253.29,1427.30,1612.97,600.08,590.91,39.12,0000 0000 0000 0000 000000
2017-02-01 11:16:05,0.21,10.34,0.00,20.62,24.10,27.84,14.54,51.34,999.46,2036.01,1252.00,1426.38,1611.91,600.01,590.78,39.17,0000 0000 0000 0000 000000
2017-02-01 11:21:07,0.23,10.35,0.00,20.66,24.11,27.82,14.46,51.33,999.50,2036.01,1250.79,1425.58,1610.97,600.28,590.89,39.22,0000 0000 0000 0000 000000
2017-02-01 11:26:08,0.21,10.36,0.00,20.60,24.12,27.83,14.44,51.42,999.48,2036.01,1249.65,1424.75,1609.96,599.93,590.64,39.27,0000 0000 0000 0000 000000
2017-02-01 11:31:09,0.21,10.37,0.00,20.64,24.12,27.87,14.47,51.61,999.48,2036.01,1248.38,1423.85,1608.94,599.74,590.42,39.32,0000 0000 0000 0000 000000
2017-02-01 11:36:10,0.23,10.38,0.00,20.70,24.12,27.85,14.48,51.68,999.37,2036.01,1247.14,1422.87,1607.89,599.88,590.46,39.37,0000 0000 0000 0000 000000
2017-02-01 11:41:12,0.21,10.40,0.00,20.70,24.14,27.86,14.46,51.53,999.38,2036.01,1245.86,1422.00,1606.92,600.15,590.62,39.42,0000 0000 0000 0000 000000
2017-02-01 11:46:13,0.22,10.41,0.00,20.67,24.15,27.91,14.47,51.50,999.43,2036.00,1244.71,1421.16,1605.98,599.95,590.39,39.47,0000 0000 0000 0000 000000
2017-02-01 11:51:14,0.21,10.42,0.00,20.71,24.16,27.92,14.40,51.67,999.50,2036.00,1243.64,1420.35,1605.06,599.95,590.55,39.52,0000 0000 0000 0000 000000
2017-02-01 11:56:16,0.21,10.43,0.00,20.75,24.17,27.95,14.48,51.64,999.52,2036.00,1242.50,1419.57,1604.15,599.98,590.44,39.57,0000 0000 0000 0000 000000
2017-02-01 12:01:17,0.18,10.44,0.00,20.72,24.18,27.97,14.50,51.98,999.53,2036.00,1241.42,1418.84,1603.22,600.25,590.93,39.62,0000 0000 0000 0000 000000
2017-02-01 12:06:18,0.19,10.45,0.00,20.72,24.20,27.99,14.52,52.13,999.53,2036.00,1240.30,1418.02,1602.33,599.84,590.28,39.67,0000 0000 0000 0000 000000
2017-02-01 12:11:19,0.21,10.46,0.00,20.81,24.20,28.04,14.47,52.08,999.53,2036.00,1239.25,1417.19,1601.50,599.89,590.30,39.72,0000 0000 0000 0000 000000
2017-02-01 12:16:21,0.19,10.47,0.00,20.80,24.22,28.04,14.51,51.94,999.53,2036.00,1238.20,1416.56,1600.67,600.09,590.47,39.77,0000 0000 0000 0000 000000
2017-02-01 12:21:22,0.15,10.48,0.00,20.80,24.23,28.08,14.54,51.88,999.52,2036.00,1237.13,1415.82,1599.75,600.68,590.91,39.82,0000 0000 0000 0000 000000
2017-02-01 12:26:23,0.17,10.49,0.00,20.85,24.25,28.07,14.41,51.77,999.53,2036.00,1236.06,1415.03,1599.00,599.90,590.22,39.87,0000 0000 0000 0000 000000
2017-02-01 12:31:24,0.21,10.50,0.00,20.90,24.27,28.08,14.47,51.88,999.52,2036.00,1235.02,1414.22,1598.13,599.91,590.06,39.93,0000 0000 0000 0000 000000
2017-02-01 12:36:26,0.21,10.51,0.00,20.85,24.28,28.10,14.42,51.91,999.52,2036.00,1233.94,1413.47,1597.24,599.75,590.11,39.98,0000 0000 0000 0000 000000
2017-02-01 12:41:27,0.20,10.52,0.00,20.86,24.30,28.11,14.42,51.97,999.53,2036.00,1232.88,1412.72,1596.30,599.71,589.99,40.03,0000 0000 0000 0000 000000
2017-02-01 12:46:28,0.17,10.53,0.00,20.95,24.31,28.13,14.47,51.99,999.52,2035.99,1231.87,1411.97,1595.42,599.83,589.96,40.08,0000 0000 0000 0000 000000
2017-02-01 12:51:30,0.23,10.54,0.00,20.94,24.33,28.18,14.41,51.88,999.51,2035.98,1230.77,1411.10,1594.46,599.71,589.86,40.13,0000 0000 0000 0000 000000
2017-02-01 12:56:31,0.17,10.55,0.00,20.92,24.35,28.19,14.46,51.85,999.52,2035.98,1229.82,1410.39,1593.73,600.15,590.36,40.18,0000 0000 0000 0000 000000
2017-02-01 13:01:33,0.13,10.56,0.00,20.94,24.37,28.21,14.40,51.92,999.52,2035.98,1228.87,1409.81,1592.88,599.81,589.96,40.23,0000 0000 0000 0000 000000